RH
22 17 16 11 9 9 8 7 8 9 11 11 11 13 18 27 44 54 70 87 86 87 100 100 100 100 100 100 100 100 100 99 62 31 84 100 100 100 100 100 100 100 86
16 11 8 6 7 6 6 6 6 6 7 7 8 11 18 21 31 55 66 58 78 73 93 100 100 100 100 100 100 100 100 100 99 57 50 79 100 100 100 100 100 99 100
8 7 6 7 7 6 6 6 6 6 6 7 8 8 10 10 11 14 16 27 94 80 100 81 99 100 100 100 100 100 100 100 100 92 53 66 87 100 100 100 100 100 100
6 6 6 6 7 7 6 6 6 7 7 8 8 9 10 10 11 12 23 46 66 100 72 67 42 100 100 100 100 100 100 100 100 100 62 53 79 100 100 100 100 100 100
7 6 6 6 6 7 7 6 6 6 8 9 9 9 9 12 12 13 14 21 29 37 66 44 21 63 100 100 100 100 100 100 100 100 75 70 100 100 100 100 100 100 100
7 6 7 7 7 6 6 6 6 6 7 9 11 12 13 15 15 15 16 17 18 17 18 20 34 48 82 100 100 100 100 100 100 100 65 82 100 100 100 100 100 100 100
7 7 8 8 7 6 6 5 6 6 6 6 8 10 12 14 17 16 16 19 18 18 19 21 28 28 46 59 100 100 100 100 100 100 43 87 100 100 100 100 100 100 100
8 8 8 8 7 6 6 6 6 6 7 7 7 8 8 9 12 17 18 19 18 19 19 20 19 22 38 99 99 100 100 100 100 100 90 63 100 100 100 100 100 100 100
9 9 9 8 7 7 7 7 7 7 7 7 8 8 8 8 8 9 9 11 15 19 20 20 20 21 30 50 80 100 100 100 100 100 100 65 100 100 100 100 100 100 100
10 11 12 10 9 8 9 8 8 8 8 8 8 8 8 8 8 8 9 8 8 8 10 12 13 17 22 46 45 57 92 100 100 100 100 70 84 100 100 100 100 100 100
12 12 13 14 11 9 8 9 9 9 8 8 7 6 6 6 6 7 8 8 8 9 8 8 8 9 9 11 13 21 52 56 96 100 100 100 98 95 100 100 100 100 100
15 14 14 16 17 12 10 9 8 8 8 8 7 7 7 7 7 6 6 7 7 7 8 8 8 8 8 9 8 10 20 32 34 71 100 100 100 95 88 100 100 100 100
16 16 16 16 18 19 13 12 10 9 9 8 6 6 6 6 7 6 6 6 6 7 7 7 7 7 7 8 8 10 10 17 25 32 82 100 100 100 100 100 100 100 100
16 16 15 15 17 20 21 13 12 11 11 8 8 6 6 6 6 6 7 7 8 8 8 8 8 8 7 8 8 9 10 11 20 32 81 100 100 86 100 100 100 100 100
16 16 16 16 16 18 21 20 12 12 13 11 9 8 8 7 7 7 8 8 9 10 11 11 9 7 7 7 8 9 10 12 14 30 46 85 86 90 98 100 100 100 100
15 16 17 17 17 17 19 21 18 14 13 11 9 9 9 8 9 9 10 12 14 18 18 18 17 10 7 7 9 9 12 14 13 19 44 57 70 93 96 88 98 100 100
16 17 17 17 17 17 18 20 24 14 13 13 10 12 11 9 10 12 13 18 22 25 22 18 16 11 8 9 9 9 9 10 13 14 17 38 61 88 82 79 85 99 99
15 16 16 16 16 16 18 18 18 24 14 11 12 14 14 12 12 15 18 25 29 24 20 19 15 11 10 10 9 10 10 12 12 14 15 16 24 38 58 83 91 98 100
12 12 13 14 15 15 16 17 17 21 21 13 13 14 16 15 16 18 25 33 29 23 20 16 12 12 9 10 10 12 12 11 11 11 12 14 18 27 42 51 82 83 100
8 8 9 10 12 13 15 16 17 18 21 17 13 17 16 16 20 20 32 34 27 25 20 16 13 14 15 12 11 12 16 17 14 12 13 14 15 21 44 60 91 100 100
6 6 7 7 9 10 11 12 15 17 18 22 14 16 15 17 23 24 35 32 33 34 27 23 23 23 20 16 15 18 18 16 20 20 21 21 18 21 39 49 84 100 100
4 4 4 5 7 8 9 10 11 14 16 21 18 15 14 16 22 28 35 37 43 46 45 32 29 30 33 24 25 33 33 35 42 44 39 41 46 48 42 45 88 100 100
3 3 4 4 4 5 8 8 9 10 13 15 17 14 14 15 22 29 34 42 52 57 58 45 41 41 40 44 30 37 57 48 48 51 66 66 70 67 66 80 90 98 100
4 4 3 3 3 4 5 7 8 8 10 13 17 13 14 14 19 28 35 44 54 57 69 66 54 49 44 38 36 37 44 49 57 54 61 61 69 73 68 73 79 84 98
4 4 4 3 3 3 3 5 7 8 8 10 14 15 12 12 16 25 33 42 52 62 70 74 66 57 54 49 46 58 60 69 65 73 81 82 80 80 83 95 94 97 96
4 4 4 4 3 3 3 3 5 6 7 8 12 13 12 11 13 21 32 40 49 58 68 76 74 67 68 77 86 89 90 94 95 97 99 100 99 100 97 92 90 100 100
Wind_Speed
115 112 102 98 98 99 104 101 100 100 101 103 100 106 111 108 112 113 116 116 116 115 117 109 108 107 112 110 103 91 92 88 93 85 72 67 61 63 71 76 78 73 66
103 92 90 84 85 88 83 82 80 79 80 85 87 89 92 94 95 102 106 104 103 96 98 109 114 113 104 100 108 106 102 102 105 112 98 79 71 71 78 78 78 72 68
87 82 78 78 78 79 76 71 70 68 70 72 75 79 79 82 83 86 90 89 88 86 99 103 121 119 108 103 103 102 109 108 108 107 108 85 83 79 79 81 76 73 74
81 76 73 71 70 70 68 65 61 61 62 64 66 71 74 77 79 81 84 88 91 94 97 89 97 128 123 119 113 109 118 110 111 105 105 91 76 83 81 79 77 76 73
76 73 66 64 60 59 57 57 55 54 53 55 58 62 65 68 73 77 81 86 92 94 101 104 97 105 128 129 125 114 111 121 119 109 114 74 79 83 78 73 78 76 75
71 66 60 56 54 51 48 48 48 48 49 51 53 55 57 61 66 71 75 81 85 93 93 93 96 97 106 113 121 108 101 106 106 105 97 81 83 84 85 73 78 78 77
65 60 53 51 50 46 45 44 43 43 44 46 49 53 55 57 61 65 67 72 78 80 83 86 91 93 99 104 113 108 106 101 101 101 86 82 90 84 83 81 78 86 85
59 55 50 45 44 41 40 40 40 40 40 42 44 48 52 55 59 62 64 67 70 72 76 81 84 85 86 104 105 111 113 111 104 100 94 84 92 90 84 85 86 89 89
55 51 48 44 40 38 37 37 38 38 38 40 42 45 49 51 54 57 59 63 67 70 72 75 76 77 82 94 110 118 117 116 112 111 104 85 95 95 90 89 89 84 87
51 48 47 43 40 38 37 36 36 38 38 39 40 41 44 48 50 52 55 58 62 66 70 73 76 77 81 90 95 103 113 117 114 116 107 101 94 98 98 93 93 90 86
50 48 45 41 40 39 36 35 35 36 38 38 39 39 38 39 41 42 43 46 50 57 63 67 71 73 77 82 85 86 98 112 118 121 122 110 105 105 105 99 98 98 92
49 47 45 42 40 39 38 37 36 35 35 35 37 38 38 38 41 44 43 44 46 49 54 59 64 67 70 73 75 81 90 100 111 123 127 118 113 108 101 103 106 102 102
46 46 45 43 41 38 38 38 38 36 35 37 36 35 34 35 40 44 42 42 43 44 47 51 56 60 63 68 69 76 83 90 92 99 122 124 120 119 109 106 110 112 107
45 45 43 42 41 39 38 37 38 35 36 36 33 31 31 33 35 36 38 40 41 42 44 46 49 53 56 61 65 70 74 81 86 91 109 125 125 119 113 114 114 117 115
47 45 44 43 42 40 39 37 35 34 35 38 33 30 29 30 31 32 35 38 38 39 41 43 48 50 50 55 61 65 69 75 82 90 103 116 120 118 113 113 116 110 118
49 46 45 44 42 40 40 40 35 34 35 37 35 32 30 29 28 30 32 34 36 36 38 39 43 46 47 49 56 64 69 73 76 84 96 108 111 114 113 116 116 116 117
53 50 48 46 44 42 40 38 40 35 31 36 33 30 31 29 26 29 32 34 34 34 37 37 38 41 43 47 52 59 65 71 76 82 89 100 108 115 117 115 117 114 116
55 53 51 50 47 45 42 40 38 37 35 32 34 31 31 30 28 31 32 33 32 34 34 35 36 36 39 41 45 52 58 63 68 73 75 83 93 102 108 112 112 114 109
58 56 53 52 51 47 45 42 39 38 35 35 33 32 32 30 30 32 33 32 32 30 31 31 31 32 35 39 41 46 51 54 57 61 66 71 78 90 93 96 109 107 107
56 55 53 51 51 49 47 45 42 40 37 36 34 33 35 32 32 34 33 31 30 29 28 27 26 28 30 34 37 41 45 49 51 53 57 63 68 77 87 88 97 108 103
53 52 52 49 47 47 48 46 44 42 40 38 36 35 37 34 34 36 34 31 28 27 24 25 24 26 29 32 36 38 42 42 43 46 50 55 58 66 79 90 101 107 106
50 50 50 47 46 44 45 46 46 45 43 40 39 38 40 37 37 38 36 32 27 25 24 23 22 25 29 32 35 38 41 42 44 45 49 52 57 61 68 77 90 108 113
47 47 47 45 43 43 45 44 46 46 46 42 42 40 41 40 39 41 39 34 30 28 25 23 22 24 29 35 38 41 42 42 44 47 51 52 57 59 64 73 78 87 95
43 44 44 43 42 41 43 44 44 46 46 43 45 43 43 42 42 44 43 37 35 31 29 27 26 27 29 35 40 41 42 44 44 45 50 52 54 59 60 64 67 72 72
44 42 42 41 39 41 43 43 42 43 45 45 44 44 44 44 43 46 47 41 38 36 34 31 26 28 30 33 38 39 38 39 38 39 41 43 44 48 53 63 66 69 71
42 41 39 38 38 39 41 43 43 43 43 43 44 45 44 44 43 47 49 46 42 40 36 35 30 28 28 29 30 35 38 38 39 40 39 39 39 40 40 42 50 54 60
Wind_Direction
291 288 283 280 276 275 272 271 271 267 263 262 261 261 258 256 255 253 254 252 251 248 246 237 241 247 249 249 256 249 254 259 258 255 237 247 240 245 237 240 242 243 246
295 292 287 285 281 278 279 274 269 265 263 262 260 258 256 254 253 253 254 252 252 247 242 233 234 240 242 245 249 251 250 254 260 263 260 249 248 244 238 237 243 245 246
296 293 293 290 287 284 280 276 273 268 264 260 258 257 254 251 249 250 251 248 245 244 232 239 229 233 233 234 244 250 252 257 260 263 260 248 253 241 240 238 242 243 246
300 299 296 291 286 281 280 278 275 271 266 261 257 254 252 249 247 246 244 242 240 236 243 241 233 230 235 233 238 247 250 254 255 254 258 257 241 237 238 237 240 243 249
304 300 295 290 287 284 281 278 274 271 266 260 256 254 252 249 247 245 244 242 242 242 240 240 236 229 231 233 238 242 248 249 252 251 258 233 227 231 235 239 242 245 244
303 300 298 294 290 287 284 279 275 269 263 259 256 253 250 248 247 246 243 241 241 241 243 241 238 233 230 229 232 235 238 247 246 246 248 227 222 228 230 231 232 241 244
304 302 298 295 292 292 288 283 278 273 267 261 257 254 252 248 246 246 244 243 243 242 240 240 239 236 233 227 225 228 231 233 238 243 245 227 224 225 227 228 231 233 240
303 301 298 295 292 289 285 282 278 274 270 265 259 254 251 249 247 246 244 243 243 242 241 241 238 237 234 226 226 225 226 231 231 239 245 237 225 222 222 224 227 233 235
305 304 302 299 295 291 287 283 279 274 268 264 260 257 255 252 248 246 245 244 244 244 243 241 239 237 234 230 229 227 227 230 233 235 236 229 225 223 218 222 223 229 232
307 305 303 302 298 293 287 284 279 276 274 270 264 259 254 253 250 247 245 244 242 240 239 240 240 238 236 235 234 231 228 229 228 233 237 236 230 230 221 221 225 226 230
308 305 301 300 297 293 288 284 280 276 274 273 271 267 263 260 256 248 246 242 240 241 242 240 239 237 236 235 234 231 232 231 232 229 232 234 236 236 226 223 227 230 229
306 303 300 299 298 295 293 289 284 280 278 272 266 263 259 255 252 249 242 238 236 235 235 238 238 237 236 235 232 230 226 226 227 226 226 230 232 235 231 235 233 228 231
304 302 301 299 296 295 292 288 285 283 279 274 271 266 261 258 255 254 250 245 240 237 236 235 235 235 234 234 231 226 227 226 225 225 223 228 231 233 234 237 237 234 234
300 299 297 294 292 292 290 287 283 284 281 279 276 275 264 257 256 256 251 246 241 240 240 240 239 237 233 231 230 228 226 226 224 223 221 224 230 230 233 236 235 235 236
297 297 295 293 291 290 287 286 285 281 276 277 276 274 269 261 259 254 247 246 243 243 244 242 243 239 235 228 227 227 225 225 224 221 220 223 227 228 228 229 233 237 238
294 292 292 290 289 287 285 285 282 280 277 274 273 270 266 263 261 253 245 244 244 245 245 242 239 239 233 226 223 223 224 226 224 221 221 225 226 227 228 229 228 230 236
290 289 288 287 286 283 281 279 280 277 270 272 270 267 264 263 255 247 244 242 247 245 245 243 238 235 228 224 223 224 224 224 225 224 223 223 225 227 228 230 232 233 238
286 285 284 283 282 280 278 275 273 274 273 267 266 263 261 260 251 245 243 244 244 246 246 241 234 229 226 224 223 222 222 224 227 227 227 228 228 228 229 231 233 235 239
283 282 281 279 278 275 273 271 270 268 268 267 261 257 254 253 246 241 242 241 243 248 242 236 235 229 224 221 222 222 223 224 226 228 228 227 229 229 229 230 231 234 232
281 281 279 277 274 272 269 267 264 263 262 259 257 254 250 246 242 238 237 240 243 243 238 230 227 223 222 222 221 220 219 221 223 226 226 226 225 226 226 227 228 229 230
281 280 279 277 272 269 266 263 260 257 257 256 252 249 246 241 236 234 234 233 239 241 229 222 220 218 220 221 219 216 218 219 219 219 217 220 222 221 221 225 226 229 229
282 279 277 275 271 265 262 260 257 252 250 247 247 244 243 239 232 230 230 228 233 228 228 217 216 215 217 216 213 210 211 210 210 211 211 211 210 211 215 220 223 224 228
281 279 276 273 269 264 259 256 255 251 248 245 243 239 237 236 230 227 225 222 224 223 223 215 215 219 215 217 212 207 207 209 210 209 209 210 209 212 212 214 217 221 227
282 279 277 273 267 260 257 254 251 251 248 241 241 239 234 232 227 223 222 218 219 218 217 214 218 221 217 215 212 211 210 208 210 211 211 215 215 217 217 217 218 220 223
280 278 275 272 267 261 257 254 248 247 246 243 238 238 234 231 225 221 221 215 214 214 214 211 217 208 206 206 200 199 198 201 202 202 205 212 217 220 222 221 223 224 227
281 279 277 273 267 261 257 255 252 244 243 240 236 236 233 231 225 220 218 214 211 210 209 204 205 202 195 199 192 191 191 192 194 198 202 208 211 212 216 219 219 224 229